Hourly Data Report for November 17, 2020

OTTAWA INTL A
ONTARIO
Current Station Operator: NAVCAN

45°19'00.000" N
75°40'00.000" W
114.90 m
6106001
71628
YOW

Download Data

Hourly Data (November 2020)
Hourly Data Report for November 17, 2020
TIME Temp Definition
°C
Dew Point Definition
°C
Rel Hum Definition
%
Wind Dir Definition
10's deg

Wind Spd Definition
km/h
Visibility Definition
km
Stn Press Definition
kPa
Hmdx Definition


Wind Chill Definition


Weather Definition


00:00 1.9 -1.9 76 23 24 24.1 99.67     LegendNANA
01:00 1.1 -2.3 78 25 15 24.1 99.68     Mostly Cloudy
02:00 0.7 -3.5 74 30 14 24.1 99.68     LegendNANA
03:00 0.7 -3.1 76 27 9 24.1 99.66     Snow Showers
04:00 0.5 -3.9 72 27 14 24.1 99.65     Cloudy
05:00 -0.4 -5.5 68 27 16 24.1 99.66   -5 LegendNANA
06:00 -2.2 -4.8 82 27 10 24.1 99.70   -6 LegendNANA
07:00 -2.8 -4.8 86 25 9 24.1 99.74   -6 Mostly Cloudy
08:00 -1.3 -3.8 83 28 10 24.1 99.81   -5 LegendNANA
09:00 0.2 -3.6 76 29 17 24.1 99.88     LegendNANA
10:00 0.6 -5.5 63 28 23 24.1 99.91     Mostly Cloudy
11:00 1.7 -6.4 55 29 16 24.1 99.94     LegendNANA
12:00 2.2 -7.9 47 28 23 24.1 99.97     LegendNANA
13:00 0.2 -7.2 58 30 27 24.1 100.03     Snow
14:00 -1.1 -6.4 67 31 29 24.1 100.10   -8 Snow
15:00 -1.1 -9.1 55 33 25 24.1 100.19   -7 Snow
16:00 -2.2 -11.7 49 32 27 24.1 100.29   -9 Mostly Cloudy
17:00 -2.8 -11.5 51 31 31 24.1 100.40   -10 LegendNANA
18:00 -4.2 -12.4 53 31 27 24.1 100.54   -12 LegendNANA
19:00 -5.6 -13.0 56 31 27 24.1 100.68   -13 Mainly Clear
20:00 -7.0 -13.9 58 30 33 24.1 100.81   -16 LegendNANA
21:00 -7.6 -13.3 64 30 26 24.1 100.89   -16 LegendNANA
22:00 -7.9 -13.6 64 30 22 24.1 100.96   -16 Clear
23:00 -8.0 -13.2 66 30 21 24.1 101.00   -16 LegendNANA

Notes on Data Quality.

Legend

  • E = Estimated
  • M = Missing
  • NA = Not Available*
  • [empty] = Indicates an unobserved value
Date modified: